DLH1317 DAAG-EDDF

Flight info

Callsign DLH1317
Flight time 2h 7m
Altitude 38000
Route OTARO1B OTARO DCT RISEP DCT LUNOR DCT ZETCO DCT LERMA DCT PIGOS DCT EKSID DCT NOSTA DCT NOPMU DCT ABESI DCT LADOL T163 EMPAX EMPAX5D
Aircraft A320/M-SDE2E3FGIJ1LORWXYZ/HB1

Departure

Time 2026-05-08 07:26
Airport Houari Boumediene Airport (DAAG)

Arrival

Time 2026-05-08 09:33
Airport Frankfurt Main Airport (EDDF)
Time Latitude Longitude Altitude Speed Heading
2026-05-08 07:07 36.69637 3.20279 70 ft 0 kts 271°
2026-05-08 07:18 36.69637 3.20280 70 ft 2 kts 271°
2026-05-08 07:18 36.69636 3.20312 66 ft 4 kts 271°
2026-05-08 07:18 36.69636 3.20340 63 ft 4 kts 263°
2026-05-08 07:19 36.69645 3.20366 60 ft 4 kts 206°
2026-05-08 07:19 36.69670 3.20372 62 ft 4 kts 180°
2026-05-08 07:19 36.69677 3.20372 63 ft 0 kts 181°
2026-05-08 07:21 36.69664 3.20372 64 ft 5 kts 181°
2026-05-08 07:22 36.69612 3.20370 66 ft 10 kts 182°
2026-05-08 07:22 36.69523 3.20366 67 ft 15 kts 182°
2026-05-08 07:22 36.69450 3.20396 69 ft 12 kts 118°
2026-05-08 07:22 36.69443 3.20500 70 ft 12 kts 91°
2026-05-08 07:23 36.69441 3.20600 70 ft 12 kts 91°
2026-05-08 07:23 36.69437 3.20732 63 ft 18 kts 91°
2026-05-08 07:23 36.69420 3.20858 66 ft 12 kts 133°
2026-05-08 07:23 36.69346 3.20898 70 ft 12 kts 161°
2026-05-08 07:24 36.69272 3.20929 68 ft 11 kts 161°
2026-05-08 07:24 36.69210 3.20955 68 ft 8 kts 161°
2026-05-08 07:24 36.69160 3.20963 68 ft 9 kts 188°
2026-05-08 07:24 36.69116 3.20898 74 ft 10 kts 263°
2026-05-08 07:25 36.69117 3.20803 73 ft 18 kts 271°
2026-05-08 07:25 36.69128 3.20325 76 ft 92 kts 271°
2026-05-08 07:25 36.69174 3.17842 568 ft 164 kts 270°
2026-05-08 07:26 36.69193 3.16406 1279 ft 168 kts 269°
2026-05-08 07:26 36.69246 3.14864 1744 ft 190 kts 281°
2026-05-08 07:26 36.69863 3.13349 2270 ft 206 kts 314°
2026-05-08 07:26 36.71116 3.12434 2866 ft 217 kts 345°
2026-05-08 07:27 36.72651 3.12366 3530 ft 226 kts
2026-05-08 07:27 36.74265 3.12496 4111 ft 241 kts
2026-05-08 07:27 36.75997 3.12624 4763 ft 257 kts
2026-05-08 07:27 36.77834 3.12754 5451 ft 271 kts
2026-05-08 07:28 36.79760 3.12886 6270 ft 280 kts
2026-05-08 07:28 36.81718 3.13031 7169 ft 285 kts
2026-05-08 07:28 36.83678 3.13259 8072 ft 288 kts
2026-05-08 07:28 36.85681 3.13550 8999 ft 292 kts
2026-05-08 07:29 36.87704 3.13883 9921 ft 295 kts
2026-05-08 07:29 36.89820 3.14254 10418 ft 315 kts
2026-05-08 07:29 36.92032 3.14636 10846 ft 332 kts
2026-05-08 07:29 36.94348 3.15032 11570 ft 339 kts
2026-05-08 07:30 36.96674 3.15714 12371 ft 352 kts 18°
2026-05-08 07:30 36.98864 3.17168 13183 ft 360 kts 25°
2026-05-08 07:30 37.01045 3.18744 13950 ft 365 kts 25°
2026-05-08 07:30 37.03248 3.20361 14619 ft 370 kts 26°
2026-05-08 07:31 37.05486 3.22011 15276 ft 375 kts 26°
2026-05-08 07:31 37.07755 3.23679 15922 ft 381 kts 26°
2026-05-08 07:31 37.10058 3.25369 16570 ft 387 kts 26°
2026-05-08 07:31 37.12395 3.27082 17203 ft 392 kts 26°
2026-05-08 07:32 37.14767 3.28817 17839 ft 398 kts 26°
2026-05-08 07:32 37.17172 3.30577 18443 ft 403 kts 26°
2026-05-08 07:32 37.19607 3.32363 18998 ft 408 kts 26°
2026-05-08 07:32 37.22069 3.34169 19578 ft 412 kts 25°
2026-05-08 07:33 37.24556 3.35994 20146 ft 416 kts 25°
2026-05-08 07:33 37.27075 3.37840 20714 ft 421 kts 25°
2026-05-08 07:33 37.29619 3.39704 21263 ft 426 kts 25°
2026-05-08 07:33 37.32191 3.41588 21825 ft 430 kts 25°
2026-05-08 07:34 37.34790 3.43495 22386 ft 435 kts 25°
2026-05-08 07:34 37.37382 3.45404 22932 ft 440 kts 25°
2026-05-08 07:34 37.40036 3.47366 23482 ft 445 kts 24°
2026-05-08 07:34 37.42716 3.49350 23981 ft 449 kts 24°
2026-05-08 07:35 37.45417 3.51350 24491 ft 452 kts 24°
2026-05-08 07:35 37.48132 3.53361 24996 ft 454 kts 25°
2026-05-08 07:35 37.50860 3.55385 25479 ft 457 kts 25°
2026-05-08 07:35 37.53602 3.57421 25960 ft 459 kts 25°
2026-05-08 07:36 37.56358 3.59469 26426 ft 461 kts 25°
2026-05-08 07:36 37.59136 3.61528 26885 ft 464 kts 25°
2026-05-08 07:36 37.61924 3.63591 27324 ft 466 kts 25°
2026-05-08 07:36 37.64725 3.65667 27767 ft 468 kts 25°
2026-05-08 07:37 37.67540 3.67757 28220 ft 471 kts 25°
2026-05-08 07:37 37.70365 3.69860 28665 ft 473 kts 25°
2026-05-08 07:37 37.73203 3.71976 29095 ft 475 kts 25°
2026-05-08 07:37 37.76054 3.74103 29494 ft 477 kts 25°
2026-05-08 07:38 37.78917 3.76244 29895 ft 480 kts 25°
2026-05-08 07:38 37.81799 3.78403 30239 ft 482 kts 25°
2026-05-08 07:38 37.84691 3.80571 30533 ft 485 kts 25°
2026-05-08 07:38 37.87597 3.82751 30839 ft 487 kts 25°
2026-05-08 07:39 37.90518 3.84942 31144 ft 489 kts 25°
2026-05-08 07:39 37.93455 3.87146 31412 ft 492 kts 25°
2026-05-08 07:39 37.96406 3.89359 31732 ft 493 kts 25°
2026-05-08 07:39 37.99357 3.91574 32123 ft 493 kts 25°
2026-05-08 07:40 38.02308 3.93789 32495 ft 493 kts 25°
2026-05-08 07:40 38.05260 3.96007 32856 ft 494 kts 25°
2026-05-08 07:40 38.08213 3.98233 33219 ft 494 kts 25°
2026-05-08 07:40 38.11174 4.00470 33578 ft 495 kts 25°
2026-05-08 07:41 38.14129 4.02707 33961 ft 495 kts 25°
2026-05-08 07:41 38.17083 4.04945 34302 ft 494 kts 25°
2026-05-08 07:41 38.20037 4.07180 34641 ft 494 kts 25°
2026-05-08 07:41 38.22990 4.09414 34950 ft 494 kts 24°
2026-05-08 07:42 38.25941 4.11649 35270 ft 494 kts 24°
2026-05-08 07:42 38.28892 4.13890 35596 ft 494 kts 24°
2026-05-08 07:42 38.31842 4.16129 35899 ft 494 kts 24°
2026-05-08 07:42 38.34792 4.18367 36202 ft 494 kts 24°
2026-05-08 07:43 38.37744 4.20615 36465 ft 493 kts 24°
2026-05-08 07:43 38.40684 4.22858 36791 ft 492 kts 23°
2026-05-08 07:43 38.43617 4.25097 37125 ft 491 kts 23°
2026-05-08 07:43 38.46547 4.27333 37405 ft 491 kts 23°
2026-05-08 07:44 38.49437 4.29541 37651 ft 491 kts 23°
2026-05-08 07:44 38.52364 4.31780 37892 ft 491 kts 23°
2026-05-08 07:44 38.55294 4.34018 37986 ft 491 kts 23°
2026-05-08 07:45 38.61138 4.38487 37981 ft 488 kts 23°
2026-05-08 07:45 38.66958 4.42953 37996 ft 488 kts 23°
2026-05-08 07:46 38.72777 4.47428 37983 ft 487 kts 23°
2026-05-08 07:46 38.78589 4.51913 37996 ft 488 kts 23°
2026-05-08 07:47 38.84400 4.56406 38014 ft 488 kts 23°
2026-05-08 07:47 38.90201 4.60893 38019 ft 486 kts 23°
2026-05-08 07:48 38.95987 4.65382 38020 ft 485 kts 23°
2026-05-08 07:48 39.01867 4.69445 38017 ft 472 kts 12°
2026-05-08 07:49 39.07925 4.72475 38000 ft 469 kts 12°
2026-05-08 07:49 39.14003 4.75538 38005 ft 469 kts 12°
2026-05-08 07:50 39.20077 4.78626 38007 ft 469 kts 12°
2026-05-08 07:50 39.26146 4.81715 38029 ft 470 kts 12°
2026-05-08 07:51 39.32229 4.84794 38026 ft 470 kts 12°
2026-05-08 07:51 39.38312 4.87876 38022 ft 470 kts 12°
2026-05-08 07:52 39.44390 4.90972 38017 ft 470 kts 13°
2026-05-08 07:52 39.50471 4.94076 38014 ft 469 kts 13°
2026-05-08 07:53 39.56532 4.97177 37992 ft 468 kts 12°
2026-05-08 07:53 39.62585 5.00282 38000 ft 468 kts 12°
2026-05-08 07:54 39.68634 5.03385 38015 ft 467 kts 12°
2026-05-08 07:54 39.74685 5.06500 38028 ft 467 kts 12°
2026-05-08 07:55 39.80726 5.09617 38022 ft 467 kts 12°
2026-05-08 07:55 39.86765 5.12732 38023 ft 467 kts 12°
2026-05-08 07:56 39.92804 5.15843 38056 ft 467 kts 12°
2026-05-08 07:56 39.98841 5.18962 38043 ft 467 kts 12°
2026-05-08 07:57 40.04832 5.22071 38036 ft 466 kts 13°
2026-05-08 07:57 40.10866 5.25214 38031 ft 466 kts 13°
2026-05-08 07:58 40.16894 5.28358 38047 ft 467 kts 13°
2026-05-08 07:58 40.22918 5.31511 38042 ft 466 kts 13°
2026-05-08 07:59 40.27969 5.34146 38040 ft 466 kts 12°
2026-05-08 07:59 40.33985 5.37296 38041 ft 465 kts 12°
2026-05-08 08:00 40.39907 5.40640 38051 ft 472 kts 20°
2026-05-08 08:00 40.45684 5.44749 38050 ft 472 kts 20°
2026-05-08 08:01 40.51449 5.48878 38046 ft 472 kts 20°
2026-05-08 08:01 40.57210 5.53008 38044 ft 472 kts 20°
2026-05-08 08:02 40.62977 5.57140 38044 ft 471 kts 20°
2026-05-08 08:02 40.68737 5.61271 38042 ft 472 kts 20°
2026-05-08 08:03 40.74494 5.65417 38042 ft 472 kts 20°
2026-05-08 08:03 40.80250 5.69565 38049 ft 471 kts 20°
2026-05-08 08:04 40.85990 5.73704 38046 ft 470 kts 19°
2026-05-08 08:04 40.91727 5.77841 38050 ft 469 kts 19°
2026-05-08 08:05 40.97447 5.81992 38050 ft 469 kts 20°
2026-05-08 08:05 41.03163 5.86145 38066 ft 469 kts 20°
2026-05-08 08:06 41.08881 5.90312 38049 ft 469 kts 20°
2026-05-08 08:06 41.14589 5.94482 38045 ft 468 kts 20°
2026-05-08 08:07 41.20299 5.98650 38076 ft 468 kts 20°
2026-05-08 08:07 41.26003 6.02823 38065 ft 468 kts 20°
2026-05-08 08:08 41.31662 6.06979 38048 ft 468 kts 20°
2026-05-08 08:08 41.37352 6.11170 38053 ft 467 kts 20°
2026-05-08 08:09 41.43022 6.15351 38037 ft 463 kts 20°
2026-05-08 08:09 41.48648 6.19494 38036 ft 461 kts 20°
2026-05-08 08:10 41.54255 6.23637 38038 ft 461 kts 20°
2026-05-08 08:10 41.59860 6.27795 38036 ft 461 kts 20°
2026-05-08 08:11 41.65466 6.31953 38054 ft 461 kts 20°
2026-05-08 08:11 41.71070 6.36123 38053 ft 460 kts 20°
2026-05-08 08:12 41.76665 6.40295 38054 ft 460 kts 20°
2026-05-08 08:12 41.82258 6.44482 38076 ft 460 kts 21°
2026-05-08 08:13 41.87835 6.48653 38052 ft 458 kts 21°
2026-05-08 08:13 41.93397 6.52829 38057 ft 458 kts 21°
2026-05-08 08:14 41.98956 6.57001 38061 ft 457 kts 21°
2026-05-08 08:14 42.04478 6.61140 38073 ft 457 kts 21°
2026-05-08 08:15 42.10027 6.65336 38064 ft 458 kts 22°
2026-05-08 08:15 42.15631 6.69337 38061 ft 449 kts 13°
2026-05-08 08:16 42.21530 6.71708 38088 ft 441 kts
2026-05-08 08:16 42.27462 6.73884 38043 ft 442 kts
2026-05-08 08:17 42.33400 6.76084 38045 ft 443 kts
2026-05-08 08:17 42.39342 6.78292 38039 ft 443 kts
2026-05-08 08:18 42.45295 6.80499 38052 ft 444 kts
2026-05-08 08:18 42.51255 6.82705 38044 ft 444 kts
2026-05-08 08:19 42.57220 6.84934 38040 ft 445 kts
2026-05-08 08:19 42.63201 6.87164 38029 ft 446 kts
2026-05-08 08:20 42.69156 6.89383 38028 ft 447 kts
2026-05-08 08:20 42.75159 6.91633 38032 ft 448 kts
2026-05-08 08:21 42.81166 6.93903 38050 ft 448 kts
2026-05-08 08:21 42.87182 6.96173 38049 ft 449 kts
2026-05-08 08:22 42.93212 6.98443 38042 ft 449 kts
2026-05-08 08:22 42.99238 7.00721 38045 ft 449 kts
2026-05-08 08:23 43.05264 7.02995 38057 ft 450 kts 10°
2026-05-08 08:23 43.11297 7.05274 38036 ft 450 kts 10°
2026-05-08 08:24 43.17307 7.07775 38027 ft 455 kts 19°
2026-05-08 08:24 43.23061 7.11482 38040 ft 458 kts 21°
2026-05-08 08:25 43.28818 7.15233 38028 ft 458 kts 21°
2026-05-08 08:25 43.34573 7.18982 38026 ft 458 kts 21°
2026-05-08 08:26 43.40330 7.22738 38052 ft 458 kts 21°
2026-05-08 08:26 43.46088 7.26503 38034 ft 458 kts 21°
2026-05-08 08:27 43.51854 7.30286 38024 ft 459 kts 21°
2026-05-08 08:27 43.57611 7.34075 38023 ft 459 kts 22°
2026-05-08 08:27 43.60384 7.36310 38048 ft 463 kts 33°
2026-05-08 08:28 43.62873 7.39154 38038 ft 467 kts 43°
2026-05-08 08:28 43.66909 7.46198 38027 ft 470 kts 53°
2026-05-08 08:29 43.70675 7.53508 38009 ft 470 kts 53°
2026-05-08 08:29 43.74476 7.60881 38001 ft 471 kts 53°
2026-05-08 08:30 43.78262 7.68289 38021 ft 472 kts 54°
2026-05-08 08:30 43.84683 7.78467 38021 ft 467 kts 35°
2026-05-08 08:31 43.89833 7.83956 38020 ft 467 kts 35°
2026-05-08 08:31 43.95100 7.89210 38015 ft 464 kts 26°
2026-05-08 08:32 44.01010 7.92616 38015 ft 460 kts 16°
2026-05-08 08:32 44.06996 7.95588 38007 ft 460 kts 16°
2026-05-08 08:33 44.13027 7.98609 37997 ft 461 kts 17°
2026-05-08 08:33 44.19062 8.01646 38004 ft 461 kts 17°
2026-05-08 08:34 44.25113 8.04685 38013 ft 462 kts 17°
2026-05-08 08:34 44.31168 8.07726 38044 ft 463 kts 17°
2026-05-08 08:35 44.37222 8.10791 38060 ft 463 kts 17°
2026-05-08 08:35 44.43281 8.13866 38065 ft 463 kts 17°
2026-05-08 08:36 44.49337 8.16946 38063 ft 463 kts 17°
2026-05-08 08:36 44.55398 8.20025 38062 ft 463 kts 17°
2026-05-08 08:37 44.61464 8.23109 38063 ft 464 kts 17°
2026-05-08 08:37 44.67525 8.26200 38071 ft 464 kts 17°
2026-05-08 08:38 44.73593 8.29304 38074 ft 464 kts 17°
2026-05-08 08:38 44.79652 8.32416 38079 ft 464 kts 17°
2026-05-08 08:39 44.85715 8.35536 38075 ft 464 kts 17°
2026-05-08 08:39 44.91777 8.38656 38093 ft 464 kts 17°
2026-05-08 08:40 44.97836 8.41798 38085 ft 464 kts 17°
2026-05-08 08:40 45.03898 8.44938 38080 ft 464 kts 17°
2026-05-08 08:41 45.09953 8.48077 38086 ft 464 kts 17°
2026-05-08 08:41 45.16014 8.51222 38072 ft 464 kts 17°
2026-05-08 08:42 45.22077 8.54384 38066 ft 464 kts 17°
2026-05-08 08:42 45.28133 8.57567 38077 ft 464 kts 17°
2026-05-08 08:43 45.34195 8.60744 38073 ft 464 kts 17°
2026-05-08 08:43 45.40259 8.63916 38071 ft 464 kts 17°
2026-05-08 08:44 45.46321 8.67099 38113 ft 464 kts 17°
2026-05-08 08:44 45.52383 8.70290 38106 ft 465 kts 17°
2026-05-08 08:45 45.58444 8.73501 38099 ft 464 kts 17°
2026-05-08 08:45 45.64500 8.76708 38105 ft 464 kts 17°
2026-05-08 08:46 45.70550 8.79914 38108 ft 464 kts 17°
2026-05-08 08:46 45.76596 8.83134 38097 ft 464 kts 17°
2026-05-08 08:47 45.82608 8.86342 38100 ft 464 kts 17°
2026-05-08 08:47 45.88658 8.89575 38105 ft 464 kts 18°
2026-05-08 08:48 45.94701 8.92816 38106 ft 463 kts 18°
2026-05-08 08:48 46.00734 8.96066 38098 ft 463 kts 18°
2026-05-08 08:49 46.05753 8.98763 38117 ft 463 kts 18°
2026-05-08 08:49 46.11776 9.02003 38114 ft 462 kts 18°
2026-05-08 08:50 46.17967 9.04040 38097 ft 453 kts 359°
2026-05-08 08:50 46.24235 9.03905 38096 ft 450 kts 354°
2026-05-08 08:51 46.30504 9.03685 38101 ft 451 kts 356°
2026-05-08 08:51 46.36785 9.04063 38084 ft 452 kts
2026-05-08 08:52 46.43066 9.04757 38077 ft 453 kts
2026-05-08 08:52 46.49349 9.05394 38079 ft 453 kts
2026-05-08 08:53 46.55640 9.05913 38081 ft 453 kts 359°
2026-05-08 08:53 46.61935 9.06386 38096 ft 453 kts 359°
2026-05-08 08:54 46.68229 9.06885 38085 ft 453 kts 360°
2026-05-08 08:54 46.74526 9.07414 38081 ft 453 kts 360°
2026-05-08 08:55 46.80824 9.07947 38075 ft 453 kts 360°
2026-05-08 08:55 46.87113 9.08475 38078 ft 452 kts 360°
2026-05-08 08:56 46.93397 9.08995 38076 ft 453 kts 360°
2026-05-08 08:56 46.99687 9.09519 38068 ft 453 kts 360°
2026-05-08 08:57 47.05977 9.10045 38068 ft 452 kts 360°
2026-05-08 08:57 47.12215 9.10560 38066 ft 452 kts 360°
2026-05-08 08:58 47.18529 9.11087 38066 ft 452 kts 360°
2026-05-08 08:58 47.24798 9.11615 38083 ft 451 kts 360°
2026-05-08 08:59 47.31023 9.12146 38084 ft 451 kts 360°
2026-05-08 08:59 47.37275 9.12684 38086 ft 451 kts 360°
2026-05-08 09:00 47.43526 9.13219 38083 ft 451 kts 360°
2026-05-08 09:00 47.49785 9.13746 38090 ft 451 kts 360°
2026-05-08 09:01 47.55937 9.14269 38087 ft 450 kts 360°
2026-05-08 09:01 47.62108 9.14788 38086 ft 450 kts 360°
2026-05-08 09:02 47.68362 9.15317 38095 ft 450 kts
2026-05-08 09:02 47.74602 9.15855 38092 ft 450 kts
2026-05-08 09:03 47.80854 9.16396 38084 ft 450 kts
2026-05-08 09:03 47.87091 9.16939 38090 ft 449 kts
2026-05-08 09:04 47.93334 9.17486 38086 ft 449 kts
2026-05-08 09:04 47.99574 9.18023 38083 ft 449 kts
2026-05-08 09:05 48.05818 9.18558 38085 ft 449 kts
2026-05-08 09:05 48.12055 9.19099 38092 ft 449 kts
2026-05-08 09:06 48.18296 9.19650 38090 ft 449 kts
2026-05-08 09:06 48.21416 9.19923 37781 ft 452 kts
2026-05-08 09:06 48.24567 9.20198 37058 ft 454 kts
2026-05-08 09:07 48.27712 9.20426 36480 ft 450 kts 356°
2026-05-08 09:07 48.30779 9.19885 35987 ft 441 kts 347°
2026-05-08 09:07 48.33789 9.19062 35477 ft 438 kts 347°
2026-05-08 09:07 48.36776 9.18233 34991 ft 434 kts 347°
2026-05-08 09:08 48.39734 9.17403 34513 ft 431 kts 347°
2026-05-08 09:08 48.42670 9.16582 34062 ft 428 kts 347°
2026-05-08 09:08 48.45583 9.15770 33539 ft 424 kts 347°
2026-05-08 09:08 48.48474 9.14964 33038 ft 420 kts 347°
2026-05-08 09:09 48.51335 9.14163 32560 ft 416 kts 347°
2026-05-08 09:09 48.54168 9.13367 32111 ft 412 kts 347°
2026-05-08 09:09 48.56980 9.12574 31664 ft 409 kts 347°
2026-05-08 09:09 48.59758 9.11793 31214 ft 405 kts 347°
2026-05-08 09:10 48.62516 9.11015 30782 ft 401 kts 347°
2026-05-08 09:10 48.65251 9.10242 30346 ft 398 kts 347°
2026-05-08 09:10 48.67958 9.09476 29878 ft 394 kts 346°
2026-05-08 09:10 48.70644 9.08711 29388 ft 391 kts 346°
2026-05-08 09:11 48.73307 9.07954 28918 ft 388 kts 346°
2026-05-08 09:11 48.75954 9.07204 28450 ft 385 kts 346°
2026-05-08 09:11 48.78573 9.06462 27987 ft 382 kts 346°
2026-05-08 09:11 48.81143 9.05735 27535 ft 379 kts 346°
2026-05-08 09:12 48.83727 9.05005 27078 ft 376 kts 346°
2026-05-08 09:12 48.86293 9.04282 26624 ft 374 kts 346°
2026-05-08 09:12 48.88840 9.03562 26175 ft 371 kts 346°
2026-05-08 09:12 48.91369 9.02843 25719 ft 368 kts 346°
2026-05-08 09:13 48.93880 9.02127 25290 ft 366 kts 346°
2026-05-08 09:13 48.96375 9.01414 24861 ft 363 kts 346°
2026-05-08 09:13 48.98807 9.00716 24473 ft 360 kts 346°
2026-05-08 09:13 49.01259 9.00014 24059 ft 357 kts 346°
2026-05-08 09:14 49.03693 8.99315 23639 ft 355 kts 346°
2026-05-08 09:14 49.06108 8.98622 23161 ft 352 kts 346°
2026-05-08 09:14 49.08505 8.97936 22703 ft 349 kts 346°
2026-05-08 09:14 49.10856 8.97243 21791 ft 344 kts 346°
2026-05-08 09:15 49.13167 8.96555 21258 ft 339 kts 346°
2026-05-08 09:15 49.15463 8.95865 20626 ft 334 kts 346°
2026-05-08 09:15 49.17759 8.95150 20237 ft 343 kts 346°
2026-05-08 09:15 49.20102 8.94478 19861 ft 341 kts 347°
2026-05-08 09:16 49.22429 8.93846 19497 ft 338 kts 347°
2026-05-08 09:16 49.24707 8.93229 19138 ft 336 kts 347°
2026-05-08 09:16 49.26994 8.92597 18792 ft 333 kts 347°
2026-05-08 09:16 49.29264 8.91961 18427 ft 330 kts 346°
2026-05-08 09:17 49.31515 8.91317 18038 ft 328 kts 346°
2026-05-08 09:17 49.33754 8.90668 17620 ft 326 kts 346°
2026-05-08 09:17 49.35977 8.90017 17199 ft 325 kts 346°
2026-05-08 09:17 49.38196 8.89365 16781 ft 324 kts 346°
2026-05-08 09:18 49.40410 8.88718 16367 ft 324 kts 347°
2026-05-08 09:18 49.42622 8.88074 15966 ft 323 kts 347°
2026-05-08 09:18 49.44825 8.87432 15579 ft 322 kts 347°
2026-05-08 09:18 49.47021 8.86792 15206 ft 320 kts 347°
2026-05-08 09:19 49.49203 8.86154 14833 ft 319 kts 347°
2026-05-08 09:19 49.51375 8.85518 14470 ft 317 kts 347°
2026-05-08 09:19 49.53541 8.84884 14108 ft 316 kts 347°
2026-05-08 09:19 49.55699 8.84253 13730 ft 315 kts 347°
2026-05-08 09:20 49.57842 8.83613 13323 ft 313 kts 345°
2026-05-08 09:20 49.59826 8.82353 12928 ft 307 kts 324°
2026-05-08 09:20 49.61367 8.80136 12539 ft 302 kts 304°
2026-05-08 09:20 49.62514 8.77451 12149 ft 300 kts 301°
2026-05-08 09:21 49.63640 8.74747 11772 ft 298 kts 301°
2026-05-08 09:21 49.64754 8.72056 11401 ft 296 kts 301°
2026-05-08 09:22 49.71229 8.56404 9146 ft 283 kts 301°
2026-05-08 09:23 49.72285 8.53852 8743 ft 281 kts 301°
2026-05-08 09:23 49.73332 8.51316 8365 ft 279 kts 301°
2026-05-08 09:23 49.74367 8.48807 7986 ft 275 kts 301°
2026-05-08 09:23 49.75379 8.46328 7669 ft 270 kts 301°
2026-05-08 09:24 49.76364 8.43885 7343 ft 266 kts 301°
2026-05-08 09:24 49.77336 8.41484 7080 ft 260 kts 301°
2026-05-08 09:24 49.78268 8.39185 6837 ft 253 kts 301°
2026-05-08 09:24 49.79198 8.36875 6582 ft 246 kts 301°
2026-05-08 09:25 49.80082 8.34644 6314 ft 241 kts 301°
2026-05-08 09:25 49.80954 8.32435 6008 ft 240 kts 301°
2026-05-08 09:25 49.81822 8.30232 5688 ft 239 kts 301°
2026-05-08 09:25 49.82685 8.28032 5385 ft 238 kts 301°
2026-05-08 09:26 49.83553 8.25952 5085 ft 238 kts 309°
2026-05-08 09:26 49.84850 8.24447 4940 ft 233 kts 338°
2026-05-08 09:26 49.86332 8.23623 4819 ft 227 kts 343°
2026-05-08 09:26 49.87837 8.22897 4687 ft 226 kts 344°
2026-05-08 09:27 49.89362 8.22188 4551 ft 225 kts 348°
2026-05-08 09:27 49.90910 8.22176 4421 ft 223 kts 12°
2026-05-08 09:27 49.92356 8.22902 4304 ft 221 kts 24°
2026-05-08 09:27 49.93736 8.23958 4174 ft 221 kts 28°
2026-05-08 09:28 49.95086 8.25086 4073 ft 218 kts 33°
2026-05-08 09:28 49.96167 8.26635 3925 ft 209 kts 56°
2026-05-08 09:28 49.96777 8.28639 3730 ft 202 kts 70°
2026-05-08 09:28 49.97264 8.30652 3447 ft 197 kts 69°
2026-05-08 09:29 49.97744 8.32628 3173 ft 194 kts 70°
2026-05-08 09:29 49.98215 8.34571 2916 ft 192 kts 70°
2026-05-08 09:29 49.98681 8.36498 2657 ft 188 kts 70°
2026-05-08 09:29 49.99136 8.38382 2407 ft 185 kts 70°
2026-05-08 09:30 49.99585 8.40245 2156 ft 183 kts 69°
2026-05-08 09:30 50.00022 8.42055 1907 ft 173 kts 69°
2026-05-08 09:30 50.00426 8.43736 1675 ft 159 kts 70°
2026-05-08 09:30 50.00801 8.45288 1462 ft 148 kts 69°
2026-05-08 09:31 50.01145 8.46719 1285 ft 136 kts 69°
2026-05-08 09:31 50.01469 8.48060 1093 ft 130 kts 69°
2026-05-08 09:31 50.01784 8.49372 884 ft 129 kts 69°
2026-05-08 09:31 50.02096 8.50670 702 ft 129 kts 69°
2026-05-08 09:32 50.02410 8.51970 565 ft 128 kts 68°
2026-05-08 09:32 50.02717 8.53256 392 ft 126 kts 69°
2026-05-08 09:32 50.03010 8.54486 333 ft 106 kts 69°
2026-05-08 09:32 50.03206 8.55305 353 ft 56 kts 69°
2026-05-08 09:33 50.03314 8.55674 349 ft 34 kts 53°
2026-05-08 09:33 50.03476 8.55910 345 ft 31 kts 39°
2026-05-08 09:33 50.03627 8.56107 357 ft 28 kts 46°
2026-05-08 09:33 50.03707 8.56369 355 ft 28 kts 70°
2026-05-08 09:34 50.03775 8.56658 354 ft 29 kts 69°
2026-05-08 09:34 50.03845 8.56951 354 ft 29 kts 69°
2026-05-08 09:34 50.03913 8.57234 364 ft 27 kts 70°
2026-05-08 09:34 50.03977 8.57501 366 ft 26 kts 69°
2026-05-08 09:35 50.04038 8.57758 370 ft 27 kts 70°
2026-05-08 09:35 50.04103 8.58028 372 ft 27 kts 69°
2026-05-08 09:35 50.04186 8.58169 367 ft 18 kts 27°
2026-05-08 09:35 50.04274 8.58207 366 ft 8 kts 354°
2026-05-08 09:36 50.04330 8.58178 367 ft 11 kts 339°
2026-05-08 09:36 50.04424 8.58124 369 ft 18 kts 340°
2026-05-08 09:36 50.04572 8.58038 366 ft 26 kts 339°
2026-05-08 09:36 50.04707 8.57961 363 ft 13 kts 340°
2026-05-08 09:37 50.04788 8.58007 366 ft 15 kts 56°
2026-05-08 09:37 50.04811 8.58118 358 ft 8 kts 103°
2026-05-08 09:37 50.04777 8.58155 361 ft 3 kts 157°
2026-05-08 09:37 50.04770 8.58160 361 ft 1 kts 158°
2026-05-08 09:38 50.04760 8.58166 362 ft 1 kts 159°
2026-05-08 09:38 50.04752 8.58171 364 ft 2 kts 159°
2026-05-08 09:38 50.04744 8.58175 362 ft 1 kts 159°
2026-05-08 09:38 50.04743 8.58176 370 ft 0 kts 159°